Location: ????????????
(60.6269°N, 46.9058°E)
Time: 05:02:18
(UTC+00:00)

Daily predictions for brighter satellites

Satellite Brightness Start Highest point End
(mag) Time Altitude Azimuth Time Altitude Azimuth Time Altitude Azimuth
ADEOS II 2.4 00:03:14 10° NNE 00:07:35 59° N 00:07:35 59° N
Cosmos 2360 4.4 00:10:42 43° NNW 00:12:35 69° NE 00:18:17 10° SE
Cosmos 1867 3.6 00:13:43 76° SE 00:13:43 76° SE 00:19:03 10° ENE
Tsikada Rocket 4.0 00:13:14 57° S 00:14:36 80° E 00:20:51 10° NNE
ARIANE 5 R/B 2.5 00:10:31 10° NNE 00:15:30 75° E 00:15:30 75° E
Cosmos 2219 Rocket 3.6 00:15:18 25° NNW 00:16:55 29° N 00:21:50 10° ENE
Resurs 1-4 Rocket 3.1 00:15:07 10° N 00:18:52 34° NNW 00:18:52 34° NNW
Cosmos 967 Rocket 4.3 00:20:38 62° WNW 00:21:49 86° SW 00:28:07 10° SE
Cosmos 1816 Rocket 4.3 00:21:16 66° SSW 00:22:14 86° WNW 00:28:31 10° NNE
CZ-4B R/B 3.7 00:22:30 10° SE 00:24:03 22° ESE 00:24:03 22° ESE
CZ-2D R/B 3.9 00:22:01 10° NNE 00:26:07 67° ENE 00:26:07 67° ENE
Cosmos 2278 4.0 00:25:28 28° NNW 00:28:29 66° NE 00:34:06 10° SE
NPP 4.5 00:25:06 10° NNE 00:29:15 36° NW 00:29:15 36° NW
CZ-2D R/B 3.2 00:27:15 10° N 00:30:54 31° NNW 00:30:54 31° NNW
Cosmos 2322 Rocket 3.4 00:28:58 20° NNW 00:32:26 38° NNE 00:37:44 10° E
Cosmos 1975 Rocket 3.3 00:33:39 64° NNE 00:33:39 64° NNE 00:37:24 10° NNE
Cosmos 2346 Rocket 4.4 00:33:15 62° W 00:33:51 65° WNW 00:40:08 10° NNE
Cosmos 2142 Rocket 4.3 00:29:53 10° NNW 00:36:07 77° W 00:42:23 10° S
NOSS 3-2 (A) 4.4 00:37:05 26° S 00:39:56 42° SE 00:46:17 10° ENE
IRS-P3 4.0 00:36:56 10° NNE 00:42:14 64° WNW 00:42:26 64° WNW
CZ-2C R/B 3.4 00:38:40 10° NNE 00:43:35 46° E 00:48:19 10° S
CZ-2C R/B 3.0 00:44:20 10° NNE 00:48:24 73° ESE 00:48:36 71° SE
Cosmos 1302 Rocket 4.0 00:51:18 58° SW 00:51:18 58° SW 00:56:01 10° SSE
SWAS 4.3 00:51:17 87° SE 00:51:17 87° SE 00:55:36 10° NE
Spot 4 Rocket 3.9 00:46:13 10° NNE 00:51:24 87° WNW 00:52:51 49° SSW
Cosmos 2369 3.5 00:48:58 34° NW 00:51:34 80° SW 00:57:14 10° SSE
Cosmos 2344 4.2 00:46:50 22° SSW 00:51:37 52° SE 00:59:50 10° ENE
USA 234 3.4 00:45:08 10° E 00:51:38 61° SSE 00:53:54 40° SW
Cosmos 1300 4.1 00:48:48 10° N 00:52:27 39° ENE 00:56:04 10° SE
IDEFIX/ARIANE 42P 2.5 00:48:43 10° NNE 00:53:58 72° WNW 00:54:58 57° SW
Cosmos 1603 3.9 00:53:21 49° WNW 00:54:13 54° NW 00:59:46 10° NE
Cosmos 1607 4.3 00:51:41 34° WNW 00:54:30 62° N 01:00:57 10° E
Cosmos 1048 Rocket 4.1 00:54:33 41° SSW 00:56:28 77° ESE 01:01:52 10° NE
GP-B 3.0 00:55:48 43° S 00:57:14 89° W 01:01:43 10° N
Meteor 1-16 Rocket 3.9 00:52:23 10° NNW 00:57:42 67° WSW 01:02:57 10° S
Lacrosse 4 Rocket 3.6 00:55:19 10° SSE 00:58:20 21° ESE 01:01:27 10° ENE
CZ-3B R/B 4.0 00:57:50 36° SW 00:59:45 43° SSW 01:19:47 10° SE
Cosmos 1680 Rocket 4.2 01:00:56 36° NW 01:01:21 36° NW 01:06:14 10° NNE
Cosmos 2279 Rocket 3.9 00:55:48 10° NNW 01:01:56 63° W 01:08:01 10° S
Cosmos 2228 3.5 00:57:59 10° N 01:02:18 61° ENE 01:06:39 10° SSE
Cosmos 1025 Rocket 3.2 01:00:31 32° S 01:02:31 73° E 01:06:57 10° NNE
Cosmos 1606 Rocket 4.1 00:59:12 10° N 01:03:39 61° ENE 01:08:06 10° SSE
Cosmos 494 Rocket 4.3 01:02:43 26° SSW 01:05:39 67° ESE 01:10:55 10° NE
Geosat 4.3 01:01:12 10° SSE 01:05:32 46° SW 01:05:32 46° SW
Cosmos 1634 Rocket 4.3 01:00:18 10° NNW 01:06:14 43° W 01:07:02 41° WSW
SL-16 R/B 2.9 01:02:51 15° NW 01:07:24 52° NE 01:12:58 10° ESE
Cosmos 1656 4.2 01:08:21 39° SW 01:08:21 39° SW 01:12:43 10° S
Cosmos 1674 3.4 01:06:44 17° S 01:09:31 53° E 01:13:15 10° NNE
ADEOS Rocket 2.8 01:05:04 10° S 01:10:26 54° W 01:16:04 10° NNW
COSMOS 2428 4.1 01:07:07 18° NW 01:10:36 31° N 01:15:42 10° ENE
Cosmos 1689 Rocket 3.4 01:08:11 10° SE 01:10:58 39° ENE 01:13:04 15° N
COSMOS 2441 4.2 01:06:19 10° NNE 01:11:12 76° WNW 01:12:59 39° SW
Cosmos 2333 Rocket 3.6 01:08:53 17° NW 01:12:35 33° NNE 01:17:40 10° ENE
Cosmos 2084 Rocket 3.6 01:12:04 52° NW 01:12:52 65° N 01:17:16 10° E
OPS 6432 4.5 01:14:14 65° ENE 01:14:14 65° ENE 01:16:47 10° ENE
COSMO-SKYMED 1 3.0 01:14:45 10° SSE 01:19:02 63° ENE 01:23:22 10° NNW
Cosmos 1626 3.9 01:15:58 10° SSE 01:19:19 33° E 01:22:41 10° NNE
CZ-4B R/B 4.4 01:17:14 10° N 01:21:54 32° NW 01:22:23 32° WNW
Meteor 1-21 4.3 01:21:49 35° SW 01:23:57 56° WNW 01:29:32 10° NNE
Cosmos 2237 Rocket 3.6 01:21:23 19° NW 01:24:24 29° N 01:29:18 10° ENE
Cosmos 1697 Rocket 2.8 01:22:07 29° WNW 01:24:40 50° WSW 01:30:06 10° S
COSMOS 2406 4.4 01:19:54 10° S 01:25:12 42° ESE 01:30:31 10° NE
Meteor 1-31 Rocket 4.5 01:23:10 10° NNE 01:26:50 35° E 01:30:29 10° SSE
Cosmos 1707 3.0 01:28:14 47° WNW 01:28:14 47° WNW 01:31:46 10° N
Lacrosse 5 rocket 4.2 01:28:04 10° SE 01:28:23 10° SE 01:28:43 10° SE
Cosmos 1992 Rocket 3.9 01:27:17 13° NW 01:31:57 63° WSW 01:37:06 10° SSE
Cosmos 2058 Rocket 3.6 01:28:45 10° N 01:33:16 62° ENE 01:37:43 10° SSE
Cosmos 2360 Rocket 3.1 01:29:50 12° NW 01:34:50 45° NNE 01:40:15 10° ESE
Cosmos 220 Rocket 4.1 01:33:10 33° WNW 01:34:52 52° WSW 01:39:11 10° S
Cosmos 1943 3.8 01:36:03 30° WNW 01:38:13 41° NNW 01:43:37 10° NE
Cosmos 1536 Rocket 3.5 01:34:41 13° SSW 01:38:39 77° WNW 01:43:11 10° NNE
FENGYUN 3A 4.2 01:33:43 10° NNE 01:39:08 61° ESE 01:44:32 10° S
NOSS 3-2 (C) 4.1 01:34:17 13° SSW 01:39:33 54° SE 01:46:17 10° ENE
MSX 3.9 01:34:34 10° NNE 01:40:10 54° WNW 01:43:48 22° SW
Cosmos 1455 4.0 01:38:20 10° N 01:41:53 33° ENE 01:45:25 10° SE
SKYMED 3 4.5 01:38:42 10° SSE 01:43:04 88° WSW 01:47:27 10° NNW
Intercosmos 24 3.9 01:39:17 10° NNW 01:43:56 62° W 01:47:33 10° S
CBERS 1 LM4 rocket 4.4 01:39:15 10° NNE 01:44:21 86° ESE 01:49:14 10° SSW
Cosmos 1980 Rocket 2.2 01:41:58 15° NW 01:46:31 57° WSW 01:51:59 10° SSE
ADEOS II 3.3 01:43:28 10° N 01:47:33 23° NW 01:48:31 22° WNW
SL-16 R/B 3.5 01:46:11 18° NW 01:49:19 30° N 01:54:17 10° NE
Celestis-02/Orion 38 4.4 01:45:03 10° SSE 01:50:07 76° SW 01:55:15 10° NW
Cosmos 1400 Rocket 2.6 01:49:15 10° NNW 01:53:16 74° WSW 01:57:11 10° S
ARIANE 5 R/B 3.3 01:50:01 10° N 01:54:21 30° NW 01:55:49 26° W
CENTAUR R/B 3.1 01:48:26 11° SW 01:54:35 62° SE 02:02:05 10° ENE
PSLV R/B 3.5 01:51:16 10° NNE 01:55:29 58° WNW 01:59:15 13° SW
Cosmos 1867 3.8 01:54:23 26° W 01:57:27 59° NNW 02:02:53 10° ENE
CZ-4B R/B 2.4 01:54:47 10° SSW 01:57:10 29° SW 01:57:10 29° SW
Resurs 1-4 Rocket 3.9 01:55:45 10° N 01:58:37 15° NNW 01:59:56 14° NW
Cosmos 2219 Rocket 3.3 01:57:01 10° NW 02:02:17 39° NNE 02:07:34 10° E
DNEPR-1 R/B 4.0 02:01:16 18° WNW 02:05:40 81° SW 02:10:29 10° SE
CZ-2C R/B 4.0 02:01:14 10° SE 02:06:30 43° ENE 02:11:47 10° NNW
MOS 1 Rocket 3.8 02:02:19 10° SE 02:06:31 56° ENE 02:10:47 10° N
SKYMED 2 3.6 02:02:53 10° S 02:07:11 59° WSW 02:11:31 10° NNW
CZ-2D R/B 4.0 02:08:17 10° N 02:10:38 13° NNW 02:12:13 12° NW
Cosmos 1975 Rocket 4.3 02:10:50 21° WNW 02:11:28 22° NW 02:14:54 10° N
Cosmos 2278 4.1 02:07:24 11° NW 02:12:27 41° WSW 02:17:42 10° S
ALOS 2.2 02:10:47 10° NNE 02:15:29 80° WNW 02:20:10 10° SSW
Cosmos 1092 Rocket 4.1 02:09:54 10° S 02:16:06 84° E 02:22:24 10° NNE
Aureole 3 3.3 02:13:22 10° NNW 02:16:55 59° W 02:21:17 10° S
Cosmos 2322 Rocket 2.3 02:11:25 10° NW 02:17:10 86° NE 02:22:52 10° SE
Cosmos 192 4.5 02:14:08 10° NNW 02:19:09 80° NE 02:24:08 10° SE
Cosmos 2237 4.5 02:14:18 10° NW 02:20:02 71° NE 02:25:43 10° SE
KORONAS-FOTON 4.2 02:16:42 10° SW 02:20:26 41° WNW 02:24:09 10° N
Cosmos 1812 Rocket 4.2 02:16:21 10° N 02:20:39 57° ENE 02:24:56 10° SSE
CZ-2C R/B 2.8 02:17:01 10° N 02:21:51 45° WNW 02:26:33 10° SW
Cosmos 1315 Rocket 2.9 02:18:05 10° NNW 02:22:13 88° ENE 02:26:21 10° SSE
CZ-2C R/B 4.1 02:19:12 10° N 02:22:29 24° NW 02:23:59 19° W
SAR-Lupe-4 4.5 02:19:31 10° SSW 02:22:39 27° W 02:25:48 10° NW
Nadezhda 4 Rocket 3.9 02:16:35 10° SSW 02:22:40 67° WNW 02:28:51 10° NNE
ADEOS 3.5 02:17:51 10° NNE 02:23:06 75° WNW 02:28:19 10° SSW
SL-14 R/B 3.2 02:21:35 10° SSW 02:25:36 76° WNW 02:29:40 10° NNE
PAYLOAD A 4.4 02:21:27 10° N 02:26:04 40° WNW 02:30:51 10° SW
USA 238 DEB 3.8 02:19:35 11° WSW 02:26:12 87° SSE 02:33:21 10° ENE
USA 238 3.8 02:19:40 11° WSW 02:26:17 86° SSE 02:33:27 10° ENE
Cosmos 1726 Rocket 4.0 02:22:14 10° NNW 02:26:24 40° W 02:30:34 10° SSW
Cosmos 1300 3.4 02:24:36 10° NNW 02:28:04 32° W 02:31:30 10° SSW
S3M 4.2 02:21:58 10° NNW 02:28:17 80° ENE 02:34:37 10° SSE
NOSS 3-2 (A) 3.6 02:24:30 12° WSW 02:30:21 89° NNW 02:37:37 10° ENE
Meteor 2-13 Rocket 4.4 02:26:19 10° SSW 02:32:29 76° WNW 02:38:40 10° NNE
Cosmos 2322 4.4 02:26:54 10° NW 02:32:30 54° NE 02:38:06 10° ESE
Cosmos 1833 Rocket 2.9 02:26:51 10° SSW 02:32:31 78° SE 02:38:12 10° NE
IDEFIX/ARIANE 42P 3.8 02:28:52 10° N 02:32:53 23° NW 02:35:46 15° W
PSLV R/B 4.5 02:31:10 10° SSW 02:35:07 38° W 02:39:06 10° NNW
USA 234 3.5 02:28:40 10° ESE 02:35:11 66° S 02:41:15 12° W
GP-B 4.5 02:33:18 15° W 02:35:14 19° WNW 02:38:26 10° NNW
Lacrosse 4 Rocket 1.3 02:32:28 10° SW 02:36:32 87° SE 02:40:39 10° NE
Meteor 2-10 Rocket 3.4 02:31:51 10° NNW 02:36:52 68° WSW 02:41:51 10° S
Meteor 1-24 Rocket 3.8 02:31:32 10° SSW 02:37:15 84° WNW 02:43:13 10° NNE
Cosmos 1484 Rocket 3.0 02:33:34 10° N 02:37:23 49° WNW 02:41:07 10° SW
Envisat 4.5 02:33:49 10° NNE 02:38:40 42° E 02:43:30 10° SSE
ISS -0.8 02:37:40 10° S 02:38:54 12° SSE 02:40:09 10° SE
Cosmos 2228 4.0 02:35:58 10° NNW 02:39:35 26° W 02:43:12 10° SW
Cosmos 1025 Rocket 4.2 02:37:27 12° WSW 02:40:37 25° WNW 02:44:17 10° N
ATLAS 3B R/B 3.6 02:34:26 10° SSW 02:40:44 50° SE 02:47:12 10° ENE
Cosmos 1606 Rocket 4.5 02:37:28 10° NNW 02:41:13 27° W 02:44:59 10° SW
Cosmos 1269 Rocket 4.1 02:36:54 10° SW 02:42:09 58° NW 02:47:26 10° NNE
Cosmos 1607 4.1 02:35:48 11° WNW 02:42:09 83° SW 02:48:40 10° SE
Cosmos 1689 Rocket 3.3 02:39:56 10° SSW 02:42:16 21° W 02:44:37 10° NW
METEOR-M 4.1 02:37:21 10° NNE 02:42:41 68° WNW 02:47:59 10° SSW
CZ-4B R/B 2.8 02:39:39 10° NNE 02:43:34 85° WNW 02:47:39 10° SSW
USA 290 3.1 02:40:55 10° SSW 02:44:05 54° ESE 02:47:18 10° NE
Cosmos 1674 3.7 02:42:02 10° WSW 02:45:17 26° WNW 02:48:33 10° N
Meteor 2-1 Rocket 4.2 02:41:11 10° NNW 02:46:47 70° WSW 02:52:27 10° S
H-2A R/B 3.3 02:43:53 10° NNE 02:47:39 61° ESE 02:51:27 10° S
Cosmos 468 Rocket 4.4 02:45:03 10° NNW 02:50:11 64° NE 02:55:17 10° SE
Cosmos 2082 Rocket 2.6 02:45:19 10° SSW 02:50:53 68° SE 02:56:30 10° NE
SL-16 R/B 2.3 02:46:07 10° NW 02:51:42 58° WSW 02:57:16 10° SSE
NOSS 5 (C) 4.4 02:48:51 10° WSW 02:52:21 75° SSE 02:55:21 10° ENE
Cosmos 2084 Rocket 3.5 02:48:35 12° WNW 02:52:35 85° SSW 02:57:03 10° ESE
Cosmos 921 Rocket 3.8 02:49:19 10° NNW 02:53:46 56° NE 02:58:13 10° SE
Cosmos 1626 2.7 02:51:07 10° SW 02:54:34 36° WNW 02:58:02 10° N
COSMO-SKYMED 1 3.5 02:51:54 10° SSW 02:55:35 26° W 02:59:18 10° NNW
COSMOS 2428 3.4 02:50:22 10° NW 02:56:01 54° NE 03:01:39 10° ESE
ADEOS Rocket 4.3 02:54:55 10° WSW 02:57:32 13° WNW 03:00:11 10° NW
Cosmos 2333 Rocket 2.7 02:52:12 10° NW 02:57:52 61° NE 03:03:28 10° ESE
Cosmos 1553 Rocket 4.0 02:52:50 10° NNW 02:58:52 57° W 03:04:49 10° S
Meteor 2-5 Rocket 3.9 02:54:51 10° SW 03:00:29 54° WNW 03:06:17 10° NNE
Meteor 1-31 Rocket 3.2 02:57:36 10° N 03:01:19 40° WNW 03:05:02 10° SW
Cosmos 1763 Rocket 3.8 02:59:00 10° NNW 03:04:08 70° NE 03:09:12 10° SE
Cosmos 2344 3.8 02:58:03 10° WSW 03:05:41 82° NNW 03:15:13 10° ENE
Lacrosse 5 rocket 3.0 03:03:12 10° SW 03:06:29 29° SSE 03:09:54 10° E
Cosmos 1697 Rocket 4.3 03:04:48 10° WNW 03:07:25 13° W 03:10:00 10° WSW
Meteor PRIRODA 3.7 03:03:56 10° N 03:07:32 56° WNW 03:11:07 10° SW
Cosmos 1428 Rocket 4.5 03:02:57 10° SSW 03:09:08 66° WNW 03:15:18 10° NNE
COSMOS 2406 3.3 03:03:44 10° SW 03:09:23 65° NW 03:15:04 10° NE
Cosmos 2237 Rocket 3.2 03:04:30 10° NW 03:09:50 40° NNE 03:15:09 10° E
deb Chang Zheng 4 4.1 03:06:31 10° N 03:10:26 37° WNW 03:14:21 10° SW
Cosmos 2058 Rocket 4.1 03:07:10 10° NNW 03:10:58 27° W 03:14:45 10° SW
PSLV R/B 3.9 03:09:06 10° NNE 03:13:14 87° WNW 03:17:22 10° SSW
Spot 2 4.2 03:08:52 10° NNE 03:13:15 89° WNW 03:17:53 10° SSW
Okean 1-7 Rocket 3.7 03:09:37 10° SSW 03:14:08 60° WNW 03:18:37 10° N
Cosmos 2292 Rocket 3.5 03:11:40 10° S 03:14:58 70° E 03:19:10 10° NNE
deb Kosmos-1763 4.1 03:13:46 10° SW 03:17:18 55° NW 03:20:52 10° NNE
ARGOS Delta rocket 4.4 03:12:32 10° N 03:17:32 45° WNW 03:22:41 10° SW
Cosmos 1455 2.7 03:13:57 10° NNW 03:17:35 40° W 03:21:13 10° SSW
Cosmos 2360 Rocket 2.3 03:13:35 10° NW 03:19:12 70° SW 03:24:48 10° SSE
FENGYUN 3A 4.2 03:14:18 10° N 03:19:20 39° NW 03:24:20 10° WSW
Cosmos 2026 Rocket 4.2 03:14:04 10° SSW 03:20:21 57° WNW 03:26:40 10° N
Cosmos 1703 4.0 03:17:04 10° S 03:20:55 60° E 03:24:46 10° NNE
NOSS 0 Rocket 4.5 03:15:20 10° NW 03:21:32 58° NE 03:27:41 10° ESE
